Time,TemperatureF,DewpointF,PressureIn,WindDirection,WindDirectionDegrees,WindSpeedMPH,WindSpeedGustMPH,Humidity,HourlyPrecipIn,Conditions,Clouds,dailyrainin,SolarRadiationWatts/m^2,SoftwareType,DateUTC
2013-08-13 00:00:00,69.6,66.9,29.85,North,-999,0.0,0.0,91,0.00,,,-99.99,0,WeatherLink 5.4,2013-08-13 04:00:00,
2013-08-13 00:15:00,69.1,66.4,29.85,North,-999,0.0,0.0,91,0.00,,,-99.99,0,WeatherLink 5.4,2013-08-13 04:15:00,
2013-08-13 00:30:00,68.9,66.5,29.85,North,-999,0.0,0.0,92,0.00,,,-99.99,0,WeatherLink 5.4,2013-08-13 04:30:00,
2013-08-13 00:45:00,68.6,66.2,29.85,North,-999,0.0,0.0,92,0.00,,,-99.99,0,WeatherLink 5.4,2013-08-13 04:45:00,
2013-08-13 01:00:00,68.3,65.9,29.85,North,-999,0.0,0.0,92,0.00,,,-99.99,0,WeatherLink 5.4,2013-08-13 05:00:00,
2013-08-13 01:15:00,68.1,65.7,29.85,North,-999,0.0,0.0,92,0.00,,,-99.99,0,WeatherLink 5.4,2013-08-13 05:15:00,
2013-08-13 01:30:00,67.8,65.4,29.84,North,-999,0.0,0.0,92,0.00,,,-99.99,0,WeatherLink 5.4,2013-08-13 05:30:00,
2013-08-13 01:45:00,67.6,65.5,29.84,North,-999,0.0,0.0,93,0.00,,,-99.99,0,WeatherLink 5.4,2013-08-13 05:45:00,
2013-08-13 02:00:00,67.4,65.3,29.84,North,-999,0.0,0.0,93,0.00,,,-99.99,0,WeatherLink 5.4,2013-08-13 06:00:00,
2013-08-13 02:15:00,67.3,65.2,29.83,North,-999,0.0,0.0,93,0.00,,,-99.99,0,WeatherLink 5.4,2013-08-13 06:15:00,
2013-08-13 02:30:00,67.1,65.0,29.82,North,-999,0.0,0.0,93,0.00,,,-99.99,0,WeatherLink 5.4,2013-08-13 06:30:00,
2013-08-13 02:45:00,66.9,64.8,29.82,North,-999,0.0,0.0,93,0.00,,,-99.99,0,WeatherLink 5.4,2013-08-13 06:45:00,
2013-08-13 03:00:00,66.8,65.0,29.81,North,-999,0.0,0.0,94,0.00,,,-99.99,0,WeatherLink 5.4,2013-08-13 07:00:00,
2013-08-13 03:15:00,66.6,64.8,29.80,North,-999,0.0,0.0,94,0.00,,,-99.99,0,WeatherLink 5.4,2013-08-13 07:15:00,
2013-08-13 03:30:00,66.4,64.6,29.80,North,-999,0.0,0.0,94,0.00,,,-99.99,0,WeatherLink 5.4,2013-08-13 07:30:00,
2013-08-13 03:45:00,66.3,64.5,29.80,North,-999,0.0,0.0,94,0.00,,,-99.99,0,WeatherLink 5.4,2013-08-13 07:45:00,
2013-08-13 04:00:00,66.1,64.3,29.80,North,-999,0.0,0.0,94,0.00,,,-99.99,0,WeatherLink 5.4,2013-08-13 08:00:00,
2013-08-13 04:15:00,66.0,64.2,29.78,North,-999,0.0,0.0,94,0.00,,,-99.99,0,WeatherLink 5.4,2013-08-13 08:15:00,
2013-08-13 04:30:00,65.8,64.0,29.77,North,-999,0.0,0.0,94,0.00,,,-99.99,0,WeatherLink 5.4,2013-08-13 08:30:00,
2013-08-13 04:45:00,65.6,63.8,29.77,North,-999,0.0,0.0,94,0.00,,,-99.99,0,WeatherLink 5.4,2013-08-13 08:45:00,
2013-08-13 05:00:00,65.6,63.8,29.77,North,-999,0.0,0.0,94,0.00,,,-99.99,0,WeatherLink 5.4,2013-08-13 09:00:00,
2013-08-13 05:15:00,65.6,64.1,29.77,North,-999,0.0,0.0,95,0.00,,,-99.99,0,WeatherLink 5.4,2013-08-13 09:15:00,
2013-08-13 05:30:00,65.8,64.3,29.77,North,-999,0.0,0.0,95,0.00,,,-99.99,0,WeatherLink 5.4,2013-08-13 09:30:00,
2013-08-13 05:45:00,65.8,64.3,29.76,North,-999,0.0,0.0,95,0.00,,,-99.99,0,WeatherLink 5.4,2013-08-13 09:45:00,
2013-08-13 06:00:00,65.8,64.3,29.76,North,-999,0.0,0.0,95,0.00,,,-99.99,0,WeatherLink 5.4,2013-08-13 10:00:00,
2013-08-13 06:15:00,66.0,64.5,29.77,North,-999,0.0,0.0,95,0.00,,,-99.99,0,WeatherLink 5.4,2013-08-13 10:15:00,
2013-08-13 06:30:00,66.0,64.5,29.76,North,-999,0.0,0.0,95,0.00,,,-99.99,0,WeatherLink 5.4,2013-08-13 10:30:00,
2013-08-13 06:45:00,66.0,64.5,29.76,North,-999,0.0,0.0,95,0.00,,,-99.99,0,WeatherLink 5.4,2013-08-13 10:45:00,
2013-08-13 07:00:00,66.0,64.8,29.76,North,-999,0.0,0.0,96,0.00,,,-99.99,0,WeatherLink 5.4,2013-08-13 11:00:00,
2013-08-13 07:15:00,66.3,65.1,29.76,North,-999,0.0,0.0,96,0.00,,,-99.99,0,WeatherLink 5.4,2013-08-13 11:15:00,
2013-08-13 07:30:00,66.3,65.1,29.76,North,-999,0.0,0.0,96,0.00,,,-99.99,0,WeatherLink 5.4,2013-08-13 11:30:00,
2013-08-13 07:45:00,66.4,65.2,29.76,North,-999,0.0,0.0,96,0.00,,,-99.99,0,WeatherLink 5.4,2013-08-13 11:45:00,
2013-08-13 08:00:00,66.4,65.2,29.76,North,-999,0.0,0.0,96,0.00,,,-99.99,0,WeatherLink 5.4,2013-08-13 12:00:00,
2013-08-13 08:15:00,66.6,65.4,29.76,North,-999,0.0,0.0,96,0.00,,,-99.99,0,WeatherLink 5.4,2013-08-13 12:15:00,
2013-08-13 08:30:00,66.8,65.6,29.76,NNE,22,0.0,1.0,96,0.01,,,-99.99,0,WeatherLink 5.4,2013-08-13 12:30:00,
2013-08-13 08:45:00,66.8,65.6,29.75,North,-999,0.0,0.0,96,0.01,,,-99.99,0,WeatherLink 5.4,2013-08-13 12:45:00,
2013-08-13 09:00:00,66.9,65.7,29.74,North,-999,0.0,0.0,96,0.01,,,-99.99,0,WeatherLink 5.4,2013-08-13 13:00:00,
2013-08-13 09:15:00,66.9,65.7,29.76,North,-999,0.0,0.0,96,0.01,,,-99.99,0,WeatherLink 5.4,2013-08-13 13:15:00,
2013-08-13 09:30:00,66.9,65.7,29.76,North,-999,0.0,0.0,96,0.00,,,-99.99,0,WeatherLink 5.4,2013-08-13 13:30:00,
2013-08-13 09:45:00,66.9,65.7,29.76,North,-999,0.0,0.0,96,0.00,,,-99.99,0,WeatherLink 5.4,2013-08-13 13:45:00,
2013-08-13 10:00:00,66.8,65.6,29.76,North,-999,0.0,0.0,96,0.00,,,-99.99,0,WeatherLink 5.4,2013-08-13 14:00:00,
2013-08-13 10:15:00,66.8,65.6,29.76,North,-999,0.0,0.0,96,0.00,,,-99.99,0,WeatherLink 5.4,2013-08-13 14:15:00,
2013-08-13 10:32:00,66.6,65.4,29.75,North,-999,0.0,0.0,96,0.00,,,-99.99,6,WeatherLink 5.4,2013-08-13 14:32:00,
2013-08-13 11:08:00,68.4,67.2,29.77,North,-999,0.0,0.0,96,0.01,,,-99.99,104,WeatherLink 5.4,2013-08-13 15:08:00,
2013-08-13 12:57:00,68.9,67.7,29.78,North,-999,0.0,0.0,96,0.00,,,-99.99,142,WeatherLink 5.4,2013-08-13 16:57:00,
2013-08-13 13:02:00,70.4,69.2,29.78,North,-999,0.0,0.0,96,0.00,,,-99.99,193,WeatherLink 5.4,2013-08-13 17:02:00,
2013-08-13 13:08:00,73.9,69.4,29.75,North,-999,0.0,0.0,86,0.00,,,-99.99,332,WeatherLink 5.4,2013-08-13 17:08:00,
2013-08-13 13:13:00,73.9,69.4,29.75,North,-999,0.0,0.0,86,0.00,,,-99.99,332,WeatherLink 5.4,2013-08-13 17:13:00,
2013-08-13 13:18:00,73.9,69.4,29.75,North,-999,0.0,0.0,86,0.00,,,-99.99,332,WeatherLink 5.4,2013-08-13 17:18:00,
2013-08-13 13:23:00,74.7,70.2,29.75,North,-999,0.0,0.0,86,0.00,,,-99.99,496,WeatherLink 5.4,2013-08-13 17:23:00,
2013-08-13 13:28:00,74.7,70.2,29.75,North,-999,0.0,0.0,86,0.00,,,-99.99,496,WeatherLink 5.4,2013-08-13 17:28:00,
2013-08-13 13:33:00,74.7,70.2,29.75,North,-999,0.0,0.0,86,0.00,,,-99.99,496,WeatherLink 5.4,2013-08-13 17:33:00,
2013-08-13 13:38:00,75.3,70.1,29.74,North,-999,0.0,0.0,84,0.00,,,-99.99,402,WeatherLink 5.4,2013-08-13 17:38:00,
2013-08-13 13:44:00,75.3,70.1,29.74,North,-999,0.0,0.0,84,0.00,,,-99.99,402,WeatherLink 5.4,2013-08-13 17:44:00,
2013-08-13 13:48:00,77.2,71.3,29.73,NNE,22,0.0,3.0,82,0.00,,,-99.99,1038,WeatherLink 5.4,2013-08-13 17:48:00,
2013-08-13 13:53:00,77.2,71.3,29.73,NNE,22,0.0,3.0,82,0.00,,,-99.99,1038,WeatherLink 5.4,2013-08-13 17:53:00,
2013-08-13 13:59:00,77.2,71.3,29.73,NNE,22,0.0,3.0,82,0.00,,,-99.99,1038,WeatherLink 5.4,2013-08-13 17:59:00,
2013-08-13 14:03:00,77.2,71.3,29.73,NNE,22,0.0,3.0,82,0.00,,,-99.99,1038,WeatherLink 5.4,2013-08-13 18:03:00,
2013-08-13 14:04:00,78.5,71.4,29.72,SSW,202,0.0,1.0,79,0.00,,,-99.99,577,WeatherLink 5.4,2013-08-13 18:04:00,
2013-08-13 14:09:00,78.5,71.4,29.72,SSW,202,0.0,1.0,79,0.00,,,-99.99,577,WeatherLink 5.4,2013-08-13 18:09:00,
2013-08-13 14:13:00,78.5,71.4,29.72,SSW,202,0.0,1.0,79,0.00,,,-99.99,577,WeatherLink 5.4,2013-08-13 18:13:00,
2013-08-13 14:18:00,78.5,71.4,29.72,SSW,202,0.0,1.0,79,0.00,,,-99.99,577,WeatherLink 5.4,2013-08-13 18:18:00,
2013-08-13 14:23:00,79.0,70.4,29.73,SSW,202,0.0,1.0,75,0.00,,,-99.99,156,WeatherLink 5.4,2013-08-13 18:23:00,
2013-08-13 14:33:00,79.0,70.4,29.73,SSW,202,0.0,1.0,75,0.00,,,-99.99,156,WeatherLink 5.4,2013-08-13 18:33:00,
2013-08-13 14:39:00,78.6,70.0,29.72,North,-999,0.0,0.0,75,0.00,,,-99.99,359,WeatherLink 5.4,2013-08-13 18:39:00,
2013-08-13 14:43:00,78.6,70.0,29.72,North,-999,0.0,0.0,75,0.00,,,-99.99,359,WeatherLink 5.4,2013-08-13 18:43:00,
2013-08-13 14:48:00,78.6,70.0,29.72,North,-999,0.0,0.0,75,0.00,,,-99.99,359,WeatherLink 5.4,2013-08-13 18:48:00,
2013-08-13 14:53:00,78.6,70.0,29.72,North,-999,0.0,0.0,75,0.00,,,-99.99,391,WeatherLink 5.4,2013-08-13 18:53:00,
2013-08-13 14:59:00,78.6,70.0,29.72,North,-999,0.0,0.0,75,0.00,,,-99.99,391,WeatherLink 5.4,2013-08-13 18:59:00,
2013-08-13 15:03:00,78.5,69.1,29.71,SSE,157,0.0,3.0,73,0.00,,,-99.99,528,WeatherLink 5.4,2013-08-13 19:03:00,
2013-08-13 15:08:00,78.5,69.1,29.71,SSE,157,0.0,3.0,73,0.00,,,-99.99,528,WeatherLink 5.4,2013-08-13 19:08:00,
2013-08-13 15:13:00,78.5,69.1,29.71,SSE,157,0.0,3.0,73,0.00,,,-99.99,528,WeatherLink 5.4,2013-08-13 19:13:00,
2013-08-13 15:19:00,78.5,69.1,29.71,SSE,157,0.0,3.0,73,0.00,,,-99.99,528,WeatherLink 5.4,2013-08-13 19:19:00,
2013-08-13 15:23:00,77.7,69.5,29.70,North,-999,0.0,0.0,76,0.00,,,-99.99,300,WeatherLink 5.4,2013-08-13 19:23:00,
2013-08-13 15:28:00,77.7,69.5,29.70,North,-999,0.0,0.0,76,0.00,,,-99.99,300,WeatherLink 5.4,2013-08-13 19:28:00,
2013-08-13 15:34:00,77.7,69.5,29.70,North,-999,0.0,0.0,76,0.00,,,-99.99,300,WeatherLink 5.4,2013-08-13 19:34:00,
2013-08-13 15:39:00,77.9,69.7,29.69,SSE,157,1.0,3.0,76,0.00,,,-99.99,847,WeatherLink 5.4,2013-08-13 19:39:00,
2013-08-13 15:43:00,77.9,69.7,29.69,SSE,157,1.0,3.0,76,0.00,,,-99.99,847,WeatherLink 5.4,2013-08-13 19:43:00,
2013-08-13 15:48:00,77.9,69.7,29.69,SSE,157,1.0,3.0,76,0.00,,,-99.99,847,WeatherLink 5.4,2013-08-13 19:48:00,
2013-08-13 15:53:00,79.0,70.4,29.69,SSE,157,1.0,3.0,75,0.00,,,-99.99,841,WeatherLink 5.4,2013-08-13 19:53:00,
2013-08-13 15:59:00,79.0,70.4,29.69,SSE,157,1.0,3.0,75,0.00,,,-99.99,841,WeatherLink 5.4,2013-08-13 19:59:00,
2013-08-13 16:03:00,79.0,70.4,29.69,SSE,157,1.0,3.0,75,0.00,,,-99.99,841,WeatherLink 5.4,2013-08-13 20:03:00,
2013-08-13 16:08:00,79.2,70.2,29.69,ENE,67,0.0,2.0,74,0.00,,,-99.99,110,WeatherLink 5.4,2013-08-13 20:08:00,
2013-08-13 16:13:00,79.2,70.2,29.69,ENE,67,0.0,2.0,74,0.00,,,-99.99,110,WeatherLink 5.4,2013-08-13 20:13:00,
2013-08-13 16:19:00,79.2,70.2,29.69,ENE,67,0.0,2.0,74,0.00,,,-99.99,110,WeatherLink 5.4,2013-08-13 20:19:00,
2013-08-13 16:23:00,78.3,69.7,29.67,ENE,67,0.0,1.0,75,0.00,,,-99.99,94,WeatherLink 5.4,2013-08-13 20:23:00,
2013-08-13 16:28:00,78.3,69.7,29.67,ENE,67,0.0,1.0,75,0.00,,,-99.99,94,WeatherLink 5.4,2013-08-13 20:28:00,
2013-08-13 16:34:00,78.3,69.7,29.67,ENE,67,0.0,1.0,75,0.00,,,-99.99,94,WeatherLink 5.4,2013-08-13 20:34:00,
2013-08-13 16:43:00,78.1,68.3,29.67,ESE,112,0.0,3.0,72,0.00,,,-99.99,443,WeatherLink 5.4,2013-08-13 20:43:00,
2013-08-13 16:48:00,78.1,68.3,29.67,ESE,112,0.0,3.0,72,0.00,,,-99.99,443,WeatherLink 5.4,2013-08-13 20:48:00,
2013-08-13 16:54:00,79.4,68.3,29.68,South,180,1.0,5.0,69,0.00,,,-99.99,672,WeatherLink 5.4,2013-08-13 20:54:00,
2013-08-13 16:58:00,79.4,68.3,29.68,South,180,1.0,5.0,69,0.00,,,-99.99,672,WeatherLink 5.4,2013-08-13 20:58:00,
2013-08-13 17:04:00,79.4,68.3,29.68,South,180,1.0,5.0,69,0.00,,,-99.99,672,WeatherLink 5.4,2013-08-13 21:04:00,
2013-08-13 17:08:00,79.8,69.1,29.67,South,180,1.0,4.0,70,0.00,,,-99.99,568,WeatherLink 5.4,2013-08-13 21:08:00,
2013-08-13 17:14:00,79.8,69.1,29.67,South,180,1.0,4.0,70,0.00,,,-99.99,568,WeatherLink 5.4,2013-08-13 21:14:00,
2013-08-13 17:19:00,79.8,69.1,29.67,South,180,1.0,4.0,70,0.00,,,-99.99,568,WeatherLink 5.4,2013-08-13 21:19:00,
2013-08-13 17:23:00,79.2,68.1,29.67,ESE,112,0.0,3.0,69,0.00,,,-99.99,335,WeatherLink 5.4,2013-08-13 21:23:00,
2013-08-13 17:29:00,79.2,68.1,29.67,ESE,112,0.0,3.0,69,0.00,,,-99.99,335,WeatherLink 5.4,2013-08-13 21:29:00,
2013-08-13 17:34:00,78.1,67.1,29.67,East,90,0.0,1.0,69,0.00,,,-99.99,143,WeatherLink 5.4,2013-08-13 21:34:00,
2013-08-13 17:38:00,78.1,67.1,29.67,East,90,0.0,1.0,69,0.00,,,-99.99,143,WeatherLink 5.4,2013-08-13 21:38:00,
2013-08-13 17:43:00,78.1,67.1,29.67,East,90,0.0,1.0,69,0.00,,,-99.99,143,WeatherLink 5.4,2013-08-13 21:43:00,
2013-08-13 17:49:00,78.1,67.1,29.67,East,90,0.0,1.0,69,0.00,,,-99.99,143,WeatherLink 5.4,2013-08-13 21:49:00,
2013-08-13 17:53:00,77.9,68.1,29.68,East,90,0.0,1.0,72,0.00,,,-99.99,219,WeatherLink 5.4,2013-08-13 21:53:00,
2013-08-13 17:59:00,77.9,68.1,29.68,East,90,0.0,1.0,72,0.00,,,-99.99,219,WeatherLink 5.4,2013-08-13 21:59:00,
2013-08-13 18:04:00,78.1,68.3,29.68,ESE,112,0.0,4.0,72,0.00,,,-99.99,429,WeatherLink 5.4,2013-08-13 22:04:00,
2013-08-13 18:09:00,78.1,68.3,29.68,ESE,112,0.0,4.0,72,0.00,,,-99.99,429,WeatherLink 5.4,2013-08-13 22:09:00,
2013-08-13 18:13:00,78.1,68.3,29.68,ESE,112,0.0,4.0,72,0.00,,,-99.99,429,WeatherLink 5.4,2013-08-13 22:13:00,
2013-08-13 18:18:00,78.1,68.3,29.68,ESE,112,0.0,4.0,72,0.00,,,-99.99,429,WeatherLink 5.4,2013-08-13 22:18:00,
2013-08-13 18:24:00,77.6,67.9,29.68,NNE,22,0.0,12.0,72,0.00,,,-99.99,141,WeatherLink 5.4,2013-08-13 22:24:00,
2013-08-13 18:29:00,77.6,67.9,29.68,NNE,22,0.0,12.0,72,0.00,,,-99.99,141,WeatherLink 5.4,2013-08-13 22:29:00,
2013-08-13 18:33:00,76.3,66.2,29.68,NE,45,1.0,7.0,71,0.00,,,-99.99,120,WeatherLink 5.4,2013-08-13 22:33:00,
2013-08-13 18:39:00,76.3,66.2,29.68,NE,45,1.0,7.0,71,0.00,,,-99.99,120,WeatherLink 5.4,2013-08-13 22:39:00,
2013-08-13 18:44:00,76.3,66.2,29.68,NE,45,1.0,7.0,71,0.00,,,-99.99,120,WeatherLink 5.4,2013-08-13 22:44:00,
2013-08-13 18:48:00,76.3,66.2,29.68,NE,45,1.0,7.0,71,0.00,,,-99.99,120,WeatherLink 5.4,2013-08-13 22:48:00,
2013-08-13 18:54:00,75.4,66.5,29.69,NE,45,0.0,3.0,74,0.00,,,-99.99,88,WeatherLink 5.4,2013-08-13 22:54:00,
2013-08-13 18:59:00,75.4,66.5,29.69,NE,45,0.0,3.0,74,0.00,,,-99.99,88,WeatherLink 5.4,2013-08-13 22:59:00,
2013-08-13 19:03:00,75.4,66.5,29.69,NE,45,0.0,3.0,74,0.00,,,-99.99,88,WeatherLink 5.4,2013-08-13 23:03:00,
2013-08-13 19:08:00,74.7,66.2,29.69,ENE,67,0.0,3.0,75,0.00,,,-99.99,58,WeatherLink 5.4,2013-08-13 23:08:00,
2013-08-13 19:13:00,74.7,66.2,29.69,ENE,67,0.0,3.0,75,0.00,,,-99.99,58,WeatherLink 5.4,2013-08-13 23:13:00,
2013-08-13 19:19:00,74.7,66.2,29.69,ENE,67,0.0,3.0,75,0.00,,,-99.99,58,WeatherLink 5.4,2013-08-13 23:19:00,
2013-08-13 19:24:00,73.9,64.3,29.69,SSE,157,0.0,4.0,72,0.00,,,-99.99,39,WeatherLink 5.4,2013-08-13 23:24:00,
2013-08-13 19:33:00,73.9,64.3,29.69,SSE,157,0.0,4.0,72,0.00,,,-99.99,39,WeatherLink 5.4,2013-08-13 23:33:00,
2013-08-13 19:39:00,73.2,64.4,29.69,SE,135,0.0,2.0,74,0.00,,,-99.99,22,WeatherLink 5.4,2013-08-13 23:39:00,
2013-08-13 19:44:00,73.2,64.4,29.69,SE,135,0.0,2.0,74,0.00,,,-99.99,22,WeatherLink 5.4,2013-08-13 23:44:00,
2013-08-13 19:48:00,73.2,64.4,29.69,SE,135,0.0,2.0,74,0.00,,,-99.99,22,WeatherLink 5.4,2013-08-13 23:48:00,
2013-08-13 19:54:00,72.3,63.9,29.70,NNE,22,0.0,6.0,75,0.00,,,-99.99,29,WeatherLink 5.4,2013-08-13 23:54:00,
2013-08-13 20:04:00,72.3,63.9,29.70,NNE,22,0.0,6.0,75,0.00,,,-99.99,29,WeatherLink 5.4,2013-08-14 00:04:00,
2013-08-13 20:09:00,71.8,64.2,29.71,North,0,0.0,2.0,77,0.00,,,-99.99,19,WeatherLink 5.4,2013-08-14 00:09:00,
2013-08-13 20:13:00,71.8,64.2,29.71,North,0,0.0,2.0,77,0.00,,,-99.99,19,WeatherLink 5.4,2013-08-14 00:13:00,
2013-08-13 20:19:00,71.8,64.2,29.71,North,0,0.0,2.0,77,0.00,,,-99.99,19,WeatherLink 5.4,2013-08-14 00:19:00,
2013-08-13 20:23:00,71.3,64.8,29.72,ENE,67,0.0,1.0,80,0.00,,,-99.99,0,WeatherLink 5.4,2013-08-14 00:23:00,
2013-08-13 20:34:00,71.3,64.8,29.72,ENE,67,0.0,1.0,80,0.00,,,-99.99,0,WeatherLink 5.4,2013-08-14 00:34:00,
2013-08-13 20:43:00,70.9,65.1,29.73,North,-999,0.0,0.0,82,0.00,,,-99.99,0,WeatherLink 5.4,2013-08-14 00:43:00,
2013-08-13 20:49:00,70.9,65.1,29.73,North,-999,0.0,0.0,82,0.00,,,-99.99,0,WeatherLink 5.4,2013-08-14 00:49:00,
2013-08-13 20:54:00,70.8,65.0,29.73,North,-999,0.0,0.0,82,0.00,,,-99.99,0,WeatherLink 5.4,2013-08-14 00:54:00,
2013-08-13 20:58:00,70.8,65.0,29.73,North,-999,0.0,0.0,82,0.00,,,-99.99,0,WeatherLink 5.4,2013-08-14 00:58:00,
2013-08-13 21:04:00,70.8,65.0,29.73,North,-999,0.0,0.0,82,0.00,,,-99.99,0,WeatherLink 5.4,2013-08-14 01:04:00,
2013-08-13 21:14:00,70.6,64.8,29.72,North,-999,0.0,0.0,82,0.00,,,-99.99,0,WeatherLink 5.4,2013-08-14 01:14:00,
2013-08-13 21:18:00,70.6,64.8,29.72,North,-999,0.0,0.0,82,0.00,,,-99.99,0,WeatherLink 5.4,2013-08-14 01:18:00,
2013-08-13 21:23:00,70.4,65.0,29.72,North,-999,0.0,0.0,83,0.00,,,-99.99,0,WeatherLink 5.4,2013-08-14 01:23:00,
2013-08-13 21:29:00,70.4,65.0,29.72,North,-999,0.0,0.0,83,0.00,,,-99.99,0,WeatherLink 5.4,2013-08-14 01:29:00,
2013-08-13 21:34:00,70.1,65.0,29.73,North,-999,0.0,0.0,84,0.00,,,-99.99,0,WeatherLink 5.4,2013-08-14 01:34:00,
2013-08-13 21:38:00,70.1,65.0,29.73,North,-999,0.0,0.0,84,0.00,,,-99.99,0,WeatherLink 5.4,2013-08-14 01:38:00,
2013-08-13 21:44:00,70.1,65.0,29.73,North,-999,0.0,0.0,84,0.00,,,-99.99,0,WeatherLink 5.4,2013-08-14 01:44:00,
2013-08-13 21:49:00,70.1,65.0,29.73,North,-999,0.0,0.0,84,0.00,,,-99.99,0,WeatherLink 5.4,2013-08-14 01:49:00,
2013-08-13 21:58:00,69.8,65.1,29.73,North,-999,0.0,0.0,85,0.00,,,-99.99,0,WeatherLink 5.4,2013-08-14 01:58:00,
2013-08-13 22:04:00,69.8,65.1,29.73,North,-999,0.0,0.0,85,0.00,,,-99.99,0,WeatherLink 5.4,2013-08-14 02:04:00,
2013-08-13 22:09:00,69.4,65.0,29.74,North,-999,0.0,0.0,86,0.00,,,-99.99,0,WeatherLink 5.4,2013-08-14 02:09:00,
2013-08-13 22:19:00,69.4,65.0,29.74,North,-999,0.0,0.0,86,0.00,,,-99.99,0,WeatherLink 5.4,2013-08-14 02:19:00,
2013-08-13 22:24:00,69.3,64.9,29.74,North,-999,0.0,0.0,86,0.00,,,-99.99,0,WeatherLink 5.4,2013-08-14 02:24:00,
2013-08-13 22:28:00,69.3,64.9,29.74,North,-999,0.0,0.0,86,0.00,,,-99.99,0,WeatherLink 5.4,2013-08-14 02:28:00,
2013-08-13 22:34:00,69.3,64.9,29.74,North,-999,0.0,0.0,86,0.00,,,-99.99,0,WeatherLink 5.4,2013-08-14 02:34:00,
2013-08-13 22:44:00,68.9,64.9,29.73,North,-999,0.0,0.0,87,0.00,,,-99.99,0,WeatherLink 5.4,2013-08-14 02:44:00,
2013-08-13 22:48:00,68.8,64.4,29.74,North,-999,0.0,0.0,86,0.00,,,-99.99,0,WeatherLink 5.4,2013-08-14 02:48:00,
2013-08-13 22:54:00,68.8,64.4,29.74,North,-999,0.0,0.0,86,0.00,,,-99.99,0,WeatherLink 5.4,2013-08-14 02:54:00,
2013-08-13 22:58:00,68.8,64.4,29.74,North,-999,0.0,0.0,86,0.00,,,-99.99,0,WeatherLink 5.4,2013-08-14 02:58:00,
2013-08-13 23:03:00,68.8,64.4,29.74,North,-999,0.0,0.0,86,0.00,,,-99.99,0,WeatherLink 5.4,2013-08-14 03:03:00,
2013-08-13 23:08:00,68.4,64.4,29.74,North,-999,0.0,0.0,87,0.00,,,-99.99,0,WeatherLink 5.4,2013-08-14 03:08:00,
2013-08-13 23:14:00,68.4,64.4,29.74,North,-999,0.0,0.0,87,0.00,,,-99.99,0,WeatherLink 5.4,2013-08-14 03:14:00,
2013-08-13 23:19:00,68.3,64.3,29.74,North,-999,0.0,0.0,87,0.00,,,-99.99,0,WeatherLink 5.4,2013-08-14 03:19:00,
2013-08-13 23:23:00,68.3,64.3,29.74,North,-999,0.0,0.0,87,0.00,,,-99.99,0,WeatherLink 5.4,2013-08-14 03:23:00,
2013-08-13 23:29:00,68.3,64.3,29.74,North,-999,0.0,0.0,87,0.00,,,-99.99,0,WeatherLink 5.4,2013-08-14 03:29:00,
2013-08-13 23:34:00,68.3,64.3,29.74,North,-999,0.0,0.0,87,0.00,,,-99.99,0,WeatherLink 5.4,2013-08-14 03:34:00,
2013-08-13 23:39:00,67.8,63.8,29.74,North,-999,0.0,0.0,87,0.00,,,-99.99,0,WeatherLink 5.4,2013-08-14 03:39:00,
2013-08-13 23:44:00,67.8,63.8,29.74,North,-999,0.0,0.0,87,0.00,,,-99.99,0,WeatherLink 5.4,2013-08-14 03:44:00,
2013-08-13 23:49:00,67.3,63.9,29.75,North,-999,0.0,0.0,89,0.00,,,-99.99,0,WeatherLink 5.4,2013-08-14 03:49:00,
2013-08-13 23:53:00,67.3,63.9,29.75,North,-999,0.0,0.0,89,0.00,,,-99.99,0,WeatherLink 5.4,2013-08-14 03:53:00,
2013-08-13 23:59:00,67.3,63.9,29.75,North,-999,0.0,0.0,89,0.00,,,-99.99,0,WeatherLink 5.4,2013-08-14 03:59:00,